(602) Marianna
ephemeris date magn radius delta ra dec elong phase
Today27 Jul 202615.53.856 AU4.267 AU11h54m-10°03'59.7°13.1°
Opposition11 May 202714.03.646 AU2.682 AU14h46m-37°28'159.6°5.5°
(602) Marianna - 2026-07-27
astro.vanbuitenen.nl


 
-1 year
-1 month
-1 day
Now
+1 day
+1 month
+1 year

The interactive orbit chart above shows the body's path through the solar system and its position at the given date. Green and blue lines are shown perpendicular to the ecliptic plane: Green if the path is above the ecliptic plane, blue if it is below. (Left-click and drag to rotate the view; Right-click and drag to move the view; Use scroll wheel to zoom in our out.)

The orbital elements of Marianna are:

            e (Eccentricity)                : 0.2519111
            a (Semimajor axis)              : 3.0799419
            i (Inclination)                 : 15.11636
            Ω (Longitude of ascending node) : 331.38799
            ω (Argument of perihelion)      : 45.54287
            M (Mean anomaly)                : 171.68733
            Epoch                           : 2026 Jun 09

            L (Longitude of perihelion)     : 15.92209
            B (Latitude of perihelion)      : 10.72750
            P (Orbital period in years)     : 5.41            
        

The light curve chart below shows the estimated development of the minor planet's magnitude.


The all-sky chart below shows the path of the minor planet over the same period as the light curve. The current position is marked yellow.





The following chart shows the path of the minor planet in the next few days. The field of view is optimized for (~10x50) binoculars and finderscopes.




Ephemerides:
Date       Time       RA (2000)    DEC (2000)    delta   radius  elong  phase   PA    magn
2026-07-27 00:00 UT   11 54 54.0   -10 03 39     4.267    3.856   59.7   13.1   120   15.5 
2026-07-27 13:51 UT   11 55 22.2   -10 06 20     4.274    3.856   59.3   13.1   120   15.5 
2026-07-28 00:00 UT   11 55 43.0   -10 08 18     4.279    3.856   59.0   13.0   120   15.5 
2026-07-29 00:00 UT   11 56 32.3   -10 13 01     4.292    3.856   58.3   12.9   120   15.5 
2026-07-30 00:00 UT   11 57 22.1   -10 17 47     4.304    3.856   57.6   12.8   120   15.5 
2026-07-31 00:00 UT   11 58 12.3   -10 22 37     4.316    3.856   56.8   12.7   120   15.5 
2026-08-01 00:00 UT   11 59 02.8   -10 27 30     4.328    3.856   56.1   12.6   120   15.5 
2026-08-02 00:00 UT   11 59 53.8   -10 32 27     4.340    3.856   55.4   12.5   121   15.5 
2026-08-03 00:00 UT   12 00 45.1   -10 37 27     4.352    3.856   54.7   12.4   121   15.5 
2026-08-04 00:00 UT   12 01 36.9   -10 42 31     4.364    3.856   54.0   12.3   121   15.5 
2026-08-05 00:00 UT   12 02 29.0   -10 47 38     4.375    3.855   53.3   12.2   121   15.5 
2026-08-06 00:00 UT   12 03 21.5   -10 52 48     4.387    3.855   52.6   12.1   121   15.5 
2026-08-07 00:00 UT   12 04 14.4   -10 58 01     4.398    3.855   51.9   11.9   121   15.5 
2026-08-08 00:00 UT   12 05 07.6   -11 03 18     4.410    3.855   51.2   11.8   122   15.5 
2026-08-09 00:00 UT   12 06 01.2   -11 08 38     4.421    3.855   50.4   11.7   122   15.5 
2026-08-10 00:00 UT   12 06 55.2   -11 14 02     4.432    3.855   49.7   11.6   122   15.5 
2026-08-11 00:00 UT   12 07 49.5   -11 19 28     4.443    3.855   49.0   11.5   122   15.5 
2026-08-12 00:00 UT   12 08 44.1   -11 24 58     4.453    3.855   48.3   11.3   122   15.5 
2026-08-13 00:00 UT   12 09 39.1   -11 30 30     4.464    3.855   47.7   11.2   123   15.5 
2026-08-14 00:00 UT   12 10 34.4   -11 36 06     4.474    3.855   47.0   11.1   123   15.5 
2026-08-15 00:00 UT   12 11 30.0   -11 41 45     4.485    3.855   46.3   10.9   123   15.5 
2026-08-16 00:00 UT   12 12 26.0   -11 47 26     4.495    3.855   45.6   10.8   123   15.5 
2026-08-17 00:00 UT   12 13 22.3   -11 53 10     4.505    3.854   44.9   10.7   123   15.5 
2026-08-18 00:00 UT   12 14 18.9   -11 58 58     4.515    3.854   44.2   10.5   124   15.5 
2026-08-19 00:00 UT   12 15 15.8   -12 04 48     4.525    3.854   43.5   10.4   124   15.5 
2026-08-20 00:00 UT   12 16 13.0   -12 10 40     4.534    3.854   42.8   10.3   124   15.5 
2026-08-21 00:00 UT   12 17 10.4   -12 16 36     4.544    3.854   42.1   10.1   124   15.5 
2026-08-22 00:00 UT   12 18 08.2   -12 22 34     4.553    3.854   41.5   10.0   125   15.5 
2026-08-23 00:00 UT   12 19 06.3   -12 28 34     4.562    3.854   40.8    9.9   125   15.5 
2026-08-24 00:00 UT   12 20 04.6   -12 34 37     4.572    3.853   40.1    9.7   125   15.5 
2026-08-25 00:00 UT   12 21 03.2   -12 40 43     4.580    3.853   39.4    9.6   125   15.5 
2026-08-26 00:00 UT   12 22 02.0   -12 46 51     4.589    3.853   38.7    9.4   126   15.5 


    Terminology:
            
    delta:  distance between minor planet and earth in AU
    radius: distance between minor planet and sun in AU
    magn:   magnitude (brightness) estimate    
    ra:     right ascension in hours (24h = 360deg)
    dec:    declination in degrees
    elong:  elongation in degrees (angle sun-earth-minor planet)    
    phase:  phase angle in degrees (angle sun-minor planet-earth)        
    AU:     Astronomical Unit (mean distance between earth and sun: 149597870.7 km
    

Orbital elements provided by the MPC (Minor Planet Center).
Calculations by a modified version of AAPlus, a C# implementation of the AA+ project by PJ Naughter from the algorithms presented in the book "Astronomical Algorithms" by Jean Meeus.
NGC2000 dso catalog and star labels from VizieR as provided by the Strasbourg astronomical Data Center.
Tycho2 catalog from the ESO archive.